Miscellaneous Local Product
Issued by NWS North Platte, NE

Home | Current Version | Previous Version | Graphics & Text | Print | Product List | Glossary On
Versions: 1 2 3 4 5 6 7 8 9 10 11 12 13 14 15 16 17 18 19 20 21 22 23 24 25 26 27 28 29 30 31 32 33 34 35 36 37 38 39 40 41 42 43 44 45 46 47 48 49 50
000
AXUS43 KLBF 271610
MISLBF


WESTERN AND NORTH CENTRAL NEBRASKA HOURLY WEATHER ROUNDUP
NATIONAL WEATHER SERVICE NORTH PLATTE NE
1100 AM CDT MON MAR 27 2017

NOTE: "FAIR" INDICATES FEW OR NO CLOUDS BELOW 12,000 FEET WITH NO
SIGNIFICANT WEATHER AND/OR OBSTRUCTIONS TO VISIBILITY.

NOTE: STATIONS NOT REPORTING VARIABLES SUCH AS SKY/WEATHER OR
PRESSURE ARE PROVIDED BY RAWS AND APRS NETWORKS AND ARE NOT UNDER
NATIONAL WEATHER SERVICE QUALITY CONTROL.

...OBSERVATIONS IN AND NEAR THE EASTERN PANHANDLE OF NEBRASKA...

CITY           SKY/WX    TMP DP  RH WIND       PRES   REMARKS
PINE RIDGE     SUNNY     53  41  63 CALM      29.89F
CHADRON        SUNNY     47  40  76 N6        29.87F
ALLIANCE       MOSUNNY   55  38  52 SW14G20   29.89F
SIDNEY         SUNNY     51  37  58 SW9       29.93F
CRESCENT LAKE    N/A     52  40  64 SW6         N/A
$$

...OBSERVATIONS IN NORTHERN NEBRASKA AND FAR SOUTHERN SOUTH DAKOTA...

CITY           SKY/WX    TMP DP  RH WIND       PRES   REMARKS
WINNER         FAIR      50  39  66 S7        29.95S
VALENTINE      CLOUDY    45  39  79 S5        29.95S
THEDFORD       FOG       41  41  99 CALM      29.96S VSB 1/2
AINSWORTH      CLOUDY    45  45 100 CALM      29.96R
O`NEILL        CLOUDY    46  37  72 CALM      29.98S
ORD            CLOUDY    46  40  79 N3        29.97R
BROKEN BOW     CLOUDY    44  32  62 CALM      29.96F
VALENTINE NWR    N/A     41  41  99 S6          N/A
HALSEY           N/A     39  39 100 S3          N/A
BUTTE            N/A     45  39  81 S5G12       N/A
CHAMBERS         N/A     52  40  64 NE6         N/A
EWING            N/A     44  38  79 W3          N/A
$$

...OBSERVATIONS IN SOUTHWEST NEBRASKA AND FAR NORTHEAST COLORADO...

CITY           SKY/WX    TMP DP  RH WIND       PRES   REMARKS
HOLYOKE        FAIR      54  41  62 CALM      29.95S
IMPERIAL       SUNNY     49  40  71 CALM      29.95S
OGALLALA       SUNNY     48  41  75 CALM      29.95S
NORTH PLATTE   CLOUDY    41  39  93 CALM      29.97R
MCCOOK         SUNNY     49  42  77 VRB5      29.97R
LEXINGTON      CLOUDY    44  42  96 S6        29.98S
STAPLETON        N/A     38  37  97 CALM        N/A
GOTHENBURG       N/A     38  38  99 SE5         N/A  WCI  34
CALLAWAY         N/A     40  39  98 S3          N/A
$$

...OBSERVATIONS IN CENTRAL LINCOLN COUNTY AREA...

CITY           SKY/WX    TMP DP  RH WIND       PRES   REMARKS
N.P. AIRPORT   CLOUDY    41  39  93 CALM      29.97R
N.P. DOWNTOWN    N/A     40  40 100 CALM        N/A
N.P. SOUTHEAST   N/A     40  39  95 CALM        N/A
N.P. HILLCREST   N/A     40  39  96 CALM        N/A
$$

...SOME OBSERVATIONS FROM AROUND THE REGION...

CITY           SKY/WX    TMP DP  RH WIND       PRES   REMARKS
DENVER         MOSUNNY   48  36  63 NW5       29.93S
LIMON          SUNNY     51  38  60 S6        29.96S
ASPEN          CLOUDY    43  24  47 N6        29.93F
LARAMIE        SUNNY     42  24  49 SW13      29.93S
CASPER         SUNNY     47  26  44 SW13      29.87S
CHEYENNE       CLOUDY    43  37  79 SW10      29.94S
SCOTTSBLUFF    SUNNY     49  35  58 CALM      29.91F
GRAND ISLAND   CLOUDY    44  41  89 NE3       30.00R
OMAHA          CLOUDY    47  40  76 N8        29.98S
SIOUX FALLS    PTSUNNY   49  37  63 N8        29.99R
PIERRE         CLOUDY    47  39  74 SE5       29.94S
RAPID CITY     PTSUNNY   39  37  92 SE8       29.90R WCI  33
BISMARCK       SUNNY     48  38  68 E5        29.94S
KANSAS CITY    CLOUDY    48  46  93 N12       29.93R
HILL CITY      CLOUDY    44  44 100 SE5       29.99S FOG
WICHITA        CLOUDY    49  45  86 N14       29.95R
DODGE CITY     MOSUNNY   50  43  77 VRB3      30.01R
OKLAHOMA CITY  CLOUDY    54  47  77 N17       29.95R
DALLAS         PTSUNNY   59  51  75 NW14      29.93R
AMARILLO       SUNNY     53  39  59 NE5       30.03R
$$




USA.gov is the U.S. government's official web portal to all federal, state and local government web resources and services.